KB6CYS Weather Reports


Display with metric or nautical units.
time (UTC)temp
F
wind
direction
speed
MPH
gust
MPH
rain 1hr
in
rain 24hr
in
rain mn
in
humidity
%
barometer
mb
20260831170024 76 212 3.0 6.0 0.00 0.00 0.00 1012.6
20260831165524 76 63 2.0 7.0 0.00 0.00 0.00 1012.6
20260831165003 75 165 4.0 7.0 0.00 0.00 0.00 1012.6
20260831164502 75 191 3.0 7.0 0.00 0.00 0.00 1012.9
20260831164003 75 217 3.0 6.0 0.00 0.00 0.00 1013.2
20260831163503 75 165 3.0 6.0 0.00 0.00 0.00 1013.2
20260831163003 74 177 2.0 6.0 0.00 0.00 0.00 1012.2
20260831162502 73 183 3.0 6.0 0.00 0.00 0.00 1012.2
20260831162024 73 217 4.0 6.0 0.00 0.00 0.00 1012.2
20260831161502 73 220 3.0 6.0 0.00 0.00 0.00 1012.2
20260831161002 73 168 3.0 6.0 0.00 0.00 0.00 1012.6
20260831160525 73 187 2.0 5.0 0.00 0.00 0.00 1012.9
20260831160003 73 163 3.0 5.0 0.00 0.00 0.00 1012.9
20260831155503 74 190 3.0 5.0 0.00 0.00 0.00 1012.2
20260831155003 73 182 3.0 7.0 0.00 0.00 0.00 1012.6
20260831154503 73 176 4.0 7.0 0.00 0.00 0.00 1012.6
20260831154003 73 182 3.0 5.0 0.00 0.00 0.00 1012.2
20260831153502 73 216 3.0 5.0 0.00 0.00 0.00 1012.2
20260831153002 72 77 1.0 5.0 0.00 0.00 0.00 1011.5
20260831152502 72 52 1.0 5.0 0.00 0.00 0.00 1012.2
20260831152003 72 99 3.0 5.0 0.00 0.00 0.00 1012.2
20260831151502 71 99 2.0 5.0 0.00 0.00 0.00 1012.2
20260831151003 71 62 2.0 4.0 0.00 0.00 0.00 1011.9
20260831150502 71 86 1.0 4.0 0.00 0.00 0.00 1011.5
20260831150004 70 127 2.0 3.0 0.00 0.00 0.00 1011.5
20260831145502 70 74 1.0 2.0 0.00 0.00 0.00 1011.5
20260831145026 70 78 1.0 2.0 0.00 0.00 0.00 1011.5
20260831144502 70 23 1.0 2.0 0.00 0.00 0.00 1011.9
20260831144003 69 102 0.0 2.0 0.00 0.00 0.00 1011.9
20260831143502 69 45 1.0 2.0 0.00 0.00 0.00 1011.9
20260831143003 69 49 1.0 2.0 0.00 0.00 0.00 1011.5
20260831142503 69 206 0.0 1.0 0.00 0.00 0.00 1011.5
20260831142002 69 202 0.0 1.0 0.00 0.00 0.00 1011.9
20260831141503 69 225 0.0 1.0 0.00 0.00 0.00 1011.9
20260831141003 68 225 0.0 1.0 0.00 0.00 0.00 1011.5
20260831140502 68 225 0.0 0.0 0.00 0.00 0.00 1011.5
20260831140004 68 225 0.0 0.0 0.00 0.00 0.00 1011.5
20260831135503 68 225 0.0 0.0 0.00 0.00 0.00 1011.2
20260831135002 68 225 0.0 0.0 0.00 0.00 0.00 1011.2
20260831134526 68 225 0.0 0.0 0.00 0.00 0.00 1011.2
20260831134003 68 225 0.0 0.0 0.00 0.00 0.00 1010.9
20260831133503 68 225 0.0 0.0 0.00 0.00 0.00 1010.9
20260831133003 68 225 0.0 0.0 0.00 0.00 0.00 1010.5
20260831132502 68 225 0.0 0.0 0.00 0.00 0.00 1010.5
20260831132003 68 225 0.0 0.0 0.00 0.00 0.00 1010.9
20260831131525 68 225 0.0 0.0 0.00 0.00 0.00 1010.5
20260831131024 68 203 0.0 0.0 0.00 0.00 0.00 1010.9
20260831130503 69 270 0.0 0.0 0.00 0.00 0.00 1010.5
20260831130002 69 270 0.0 0.0 0.00 0.00 0.00 1010.9
20260831125503 69 293 0.0 1.0 0.00 0.00 0.00 1010.2
20260831125002 69 269 0.0 1.0 0.00 0.00 0.00 1010.9
20260831124502 69 269 1.0 1.0 0.00 0.00 0.00 1010.9
20260831124024 69 269 0.0 1.0 0.00 0.00 0.00 1010.5
20260831123502 69 270 0.0 1.0 0.00 0.00 0.00 1010.5
20260831123026 69 269 0.0 2.0 0.00 0.00 0.00 1010.5
20260831122525 69 269 1.0 2.0 0.00 0.00 0.00 1010.9
20260831122003 69 263 1.0 2.0 0.00 0.00 0.00 1010.2
20260831121504 69 234 1.0 2.0 0.00 0.00 0.00 1010.9
20260831121002 69 224 1.0 2.0 0.00 0.00 0.00 1010.5
20260831120504 69 212 1.0 3.0 0.00 0.00 0.00 1010.9
20260831120024 69 219 2.0 3.0 0.00 0.00 0.00 1010.5
20260831115503 69 214 2.0 2.0 0.00 0.00 0.00 1010.5
20260831115002 69 158 1.0 2.0 0.00 0.00 0.00 1010.9
20260831114503 69 196 1.0 2.0 0.00 0.00 0.00 1011.2
20260831114004 69 119 1.0 2.0 0.00 0.00 0.00 1010.9
20260831113503 69 102 1.0 2.0 0.00 0.00 0.00 1010.9
20260831113003 69 83 1.0 2.0 0.00 0.00 0.00 1010.9
20260831112503 69 100 1.0 3.0 0.00 0.00 0.00 1010.9
20260831112025 69 114 1.0 3.0 0.00 0.00 0.00 1010.9
20260831111503 69 96 2.0 3.0 0.00 0.00 0.00 1010.9
20260831111003 69 87 0.0 2.0 0.00 0.00 0.00 1010.9
20260831110502 69 85 1.0 2.0 0.00 0.00 0.00 1011.2
20260831110003 69 93 1.0 2.0 0.00 0.00 0.00 1011.2
20260831105503 70 107 1.0 2.0 0.00 0.00 0.00 1011.2
20260831105002 70 97 1.0 2.0 0.00 0.00 0.00 1010.9
20260831104525 69 92 0.0 1.0 0.00 0.00 0.00 1010.5
20260831104003 70 86 1.0 2.0 0.00 0.00 0.00 1010.9
20260831103503 70 153 1.0 2.0 0.00 0.00 0.00 1010.5
20260831103003 70 40 1.0 2.0 0.00 0.00 0.00 1011.2
20260831102502 70 90 1.0 3.0 0.00 0.00 0.00 1011.2
20260831102004 70 158 0.0 3.0 0.00 0.00 0.00 1010.9
20260831101502 70 143 2.0 3.0 0.00 0.00 0.00 1010.9
20260831101004 70 135 1.0 2.0 0.00 0.00 0.00 1010.5
20260831100502 70 113 1.0 3.0 0.00 0.00 0.00 1010.5
20260831100025 70 158 1.0 3.0 0.00 0.00 0.00 1010.5
20260831095504 70 158 1.0 2.0 0.00 0.00 0.00 1010.5
20260831095003 70 202 0.0 3.0 0.00 0.00 0.00 1010.5
20260831094503 70 202 1.0 3.0 0.00 0.00 0.00 1010.5
20260831094002 70 201 2.0 3.0 0.00 0.00 0.00 1010.9
20260831093503 70 209 1.0 3.0 0.00 0.00 0.00 1010.9
20260831093004 70 193 1.0 3.0 0.00 0.00 0.00 1010.9
20260831092502 71 222 1.0 2.0 0.00 0.00 0.00 1011.2
20260831092003 71 236 1.0 1.0 0.00 0.00 0.00 1011.2
20260831091503 71 251 0.0 1.0 0.00 0.00 0.00 1011.2
20260831091002 71 248 0.0 2.0 0.00 0.00 0.00 1010.9
20260831090524 71 223 1.0 2.0 0.00 0.00 0.00 1010.9
20260831090003 71 207 0.0 2.0 0.00 0.00 0.00 1010.2
20260831085504 71 287 1.0 2.0 0.00 0.00 0.00 1010.9
20260831085003 71 136 1.0 2.0 0.00 0.00 0.00 1010.9
20260831084502 71 202 0.0 2.0 0.00 0.00 0.00 1010.9
20260831084004 71 196 1.0 2.0 0.00 0.00 0.00 1010.9
20260831083502 71 188 1.0 2.0 0.00 0.00 0.00 1010.9
20260831083003 71 172 1.0 2.0 0.00 0.00 0.00 1010.9
20260831082503 71 198 1.0 2.0 0.00 0.00 0.00 1010.5
20260831082003 71 144 1.0 2.0 0.00 0.00 0.00 1010.9
20260831081503 71 119 1.0 2.0 0.00 0.00 0.00 1010.5
20260831081004 71 203 0.0 1.0 0.00 0.00 0.00 1010.5
20260831080503 71 133 0.0 2.0 0.00 0.00 0.00 1010.9
20260831080025 71 67 1.0 2.0 0.00 0.00 0.00 1010.5
20260831075524 71 115 1.0 2.0 0.00 0.00 0.00 1010.5
20260831075003 72 82 1.0 2.0 0.00 0.00 0.00 1010.9
20260831074503 72 37 1.0 1.0 0.00 0.00 0.00 1010.5
20260831074003 72 100 1.0 1.0 0.00 0.00 0.00 1010.5
20260831073503 72 248 0.0 1.0 0.00 0.00 0.00 1010.5
20260831073003 72 269 0.0 2.0 0.00 0.00 0.00 1010.5
20260831072502 72 266 1.0 2.0 0.00 0.00 0.00 1010.9
20260831072003 72 269 1.0 2.0 0.00 0.00 0.00 1010.9
20260831071503 72 291 1.0 3.0 0.00 0.00 0.00 1010.9
20260831071003 72 290 1.0 3.0 0.00 0.00 0.00 1010.9
20260831070502 72 292 1.0 3.0 0.00 0.00 0.00 1010.5
20260831070004 72 278 2.0 3.0 0.00 0.00 0.00 1010.2
20260831065503 72 292 1.0 3.0 0.00 0.00 0.00 1010.5
20260831065003 72 288 2.0 3.0 0.00 0.00 0.00 1010.5
20260831064504 72 288 2.0 3.0 0.00 0.00 0.00 1010.5
20260831064003 72 328 1.0 3.0 0.00 0.00 0.00 1010.2
20260831063504 72 305 1.0 3.0 0.00 0.00 0.00 1010.2
20260831063003 72 294 1.0 3.0 0.00 0.00 0.00 1010.5
20260831062503 72 288 2.0 3.0 0.00 0.00 0.00 1010.5
20260831062003 72 282 2.0 3.0 0.00 0.00 0.00 1010.5
20260831061503 72 274 1.0 3.0 0.00 0.00 0.00 1010.5
20260831061003 72 280 1.0 3.0 0.00 0.00 0.00 1010.5
20260831060503 72 286 2.0 3.0 0.00 0.00 0.00 1010.2
20260831060005 72 279 2.0 3.0 0.00 0.00 0.00 1010.5
20260831055502 72 297 2.0 3.0 0.00 0.00 0.00 1010.5
20260831055003 73 283 2.0 3.0 0.00 0.00 0.00 1010.5
20260831054503 72 295 1.0 3.0 0.00 0.00 0.00 1010.9
20260831054002 72 295 2.0 3.0 0.00 0.00 0.00 1010.9
20260831053504 73 294 2.0 3.0 0.00 0.00 0.00 1011.2
20260831053003 73 289 2.0 5.0 0.00 0.00 0.00 1011.2
20260831052503 73 298 2.0 5.0 0.00 0.00 0.00 1011.2
20260831052002 73 299 3.0 5.0 0.00 0.00 0.00 1011.2
20260831051503 73 291 3.0 5.0 0.00 0.00 0.00 1011.2
20260831051003 73 308 3.0 9.0 0.00 0.00 0.00 1011.5
20260831050504 73 279 4.0 9.0 0.00 0.00 0.00 1011.2
20260831050004 73 259 4.0 6.0 0.00 0.00 0.00 1011.2
20260831045524 73 266 2.0 6.0 0.00 0.00 0.00 1010.9
20260831045003 74 269 3.0 6.0 0.00 0.00 0.00 1010.9
20260831044504 74 272 2.0 5.0 0.00 0.00 0.00 1010.9
20260831044003 74 279 2.0 5.0 0.00 0.00 0.00 1011.2
20260831043501 74 254 1.0 5.0 0.00 0.00 0.00 1010.9
20260831043002 74 252 3.0 5.0 0.00 0.00 0.00 1010.9
20260831042502 74 258 4.0 5.0 0.00 0.00 0.00 1010.5
20260831042002 74 256 3.0 5.0 0.00 0.00 0.00 1010.5
20260831041502 74 236 3.0 5.0 0.00 0.00 0.00 1010.9
20260831041002 74 293 2.0 5.0 0.00 0.00 0.00 1010.9
20260831040503 74 302 3.0 7.0 0.00 0.00 0.00 1011.2
20260831040023 74 266 4.0 7.0 0.00 0.00 0.00 1010.2
20260831035503 74 250 4.0 7.0 0.00 0.00 0.00 1010.5
20260831035002 74 290 3.0 8.0 0.00 0.00 0.00 1010.5
20260831034502 74 290 4.0 8.0 0.00 0.00 0.00 1010.2
20260831034002 74 300 4.0 8.0 0.00 0.00 0.00 1010.5
20260831033503 74 288 4.0 8.0 0.00 0.00 0.00 1009.9
20260831033002 75 296 3.0 6.0 0.00 0.00 0.00 1009.9
20260831032502 75 299 2.0 6.0 0.00 0.00 0.00 1009.9
20260831032002 75 269 3.0 8.0 0.00 0.00 0.00 1009.9
20260831031502 75 262 3.0 10.0 0.00 0.00 0.00 1010.2
20260831031003 75 277 6.0 10.0 0.00 0.00 0.00 1009.9
20260831030502 75 278 5.0 10.0 0.00 0.00 0.00 1009.9
20260831030024 75 279 6.0 10.0 0.00 0.00 0.00 1009.2
20260831025502 75 268 6.0 9.0 0.00 0.00 0.00 1009.9
20260831025004 75 282 3.0 7.0 0.00 0.00 0.00 1009.5
20260831024525 76 283 4.0 9.0 0.00 0.00 0.00 1009.9
20260831024002 76 277 4.0 9.0 0.00 0.00 0.00 1009.9
20260831023501 76 289 5.0 10.0 0.00 0.00 0.00 1009.5
20260831023002 76 272 6.0 10.0 0.00 0.00 0.00 1009.5
20260831022502 77 279 6.0 10.0 0.00 0.00 0.00 1009.2
20260831022002 77 275 5.0 10.0 0.00 0.00 0.00 1009.5
20260831021501 77 287 4.0 9.0 0.00 0.00 0.00 1009.5
20260831021002 78 281 4.0 10.0 0.00 0.00 0.00 1009.9
20260831020502 79 281 5.0 10.0 0.00 0.00 0.00 1009.9
20260831020002 80 280 5.0 10.0 0.00 0.00 0.00 1009.5
20260831015503 81 244 5.0 8.0 0.00 0.00 0.00 1009.9
20260831015023 81 208 4.0 6.0 0.00 0.00 0.00 1009.9
20260831014502 81 181 4.0 9.0 0.00 0.00 0.00 1009.9
20260831014003 81 189 4.0 9.0 0.00 0.00 0.00 1010.2
20260831013503 81 216 4.0 11.0 0.00 0.00 0.00 1009.9
20260831013002 81 180 6.0 11.0 0.00 0.00 0.00 1009.9
20260831012501 81 182 5.0 11.0 0.00 0.00 0.00 1009.9
20260831012023 81 209 6.0 11.0 0.00 0.00 0.00 1010.5
20260831011524 81 185 6.0 12.0 0.00 0.00 0.00 1010.2
20260831011002 81 190 6.0 12.0 0.00 0.00 0.00 1009.5
20260831010503 82 212 5.0 13.0 0.00 0.00 0.00 1009.5
20260831010002 82 215 7.0 13.0 0.00 0.00 0.00 1009.2
20260831005503 82 186 7.0 12.0 0.00 0.00 0.00 1009.9
20260831005002 82 192 5.0 12.0 0.00 0.00 0.00 1009.9
20260831004502 82 218 7.0 12.0 0.00 0.00 0.00 1009.9
20260831004003 83 203 6.0 13.0 0.00 0.00 0.00 1009.9
20260831003502 83 180 8.0 13.0 0.00 0.00 0.00 1010.2
20260831003002 84 195 6.0 11.0 0.00 0.00 0.00 1010.2
20260831002502 84 198 4.0 13.0 0.00 0.00 0.00 1009.9
20260831002002 84 216 8.0 13.0 0.00 0.00 0.00 1009.5
20260831001502 84 187 6.0 13.0 0.00 0.00 0.00 1010.2
20260831001003 84 222 8.0 13.0 0.00 0.00 0.00 1010.2
20260831000502 85 207 7.0 13.0 0.00 0.00 0.00 1010.2
20260831000002 86 177 8.0 11.0 0.00 0.00 0.00 1009.9
20260830235525 86 200 5.0 10.0 0.00 0.00 0.00 1010.2
20260830235002 87 213 6.0 10.0 0.00 0.00 0.00 1010.2
20260830234503 87 165 6.0 10.0 0.00 0.00 0.00 1009.5
20260830234003 87 181 6.0 10.0 0.00 0.00 0.00 1009.9
20260830233504 86 184 5.0 10.0 0.00 0.00 0.00 1010.2
20260830233003 86 213 6.0 11.0 0.00 0.00 0.00 1010.2
20260830232503 86 215 5.0 12.0 0.00 0.00 0.00 1009.9
20260830232004 86 215 7.0 12.0 0.00 0.00 0.00 1009.2
20260830231501 86 214 6.0 14.0 0.00 0.00 0.00 1009.9
20260830231002 87 229 7.0 14.0 0.00 0.00 0.00 1009.9
20260830230502 86 183 7.0 11.0 0.00 0.00 0.00 1009.2
20260830230003 86 217 6.0 11.0 0.00 0.00 0.00 1009.5
20260830225524 87 210 6.0 11.0 0.00 0.00 0.00 1009.5
20260830225002 87 196 5.0 10.0 0.00 0.00 0.00 1009.9
20260830224502 87 169 6.0 10.0 0.00 0.00 0.00 1010.2
20260830224003 87 207 5.0 12.0 0.00 0.00 0.00 1010.5
20260830223502 86 175 6.0 12.0 0.00 0.00 0.00 1010.5
20260830223002 86 203 5.0 11.0 0.00 0.00 0.00 1010.9
20260830222523 87 215 4.0 11.0 0.00 0.00 0.00 1011.2
20260830222002 86 218 6.0 12.0 0.00 0.00 0.00 1010.9
20260830221502 86 228 7.0 12.0 0.00 0.00 0.00 1010.5
20260830221002 86 187 6.0 12.0 0.00 0.00 0.00 1010.5
20260830220502 86 225 7.0 12.0 0.00 0.00 0.00 1010.5
20260830220003 87 199 6.0 12.0 0.00 0.00 0.00 1011.2
20260830215503 86 178 6.0 11.0 0.00 0.00 0.00 1010.5
20260830215002 86 197 7.0 14.0 0.00 0.00 0.00 1010.9
20260830214502 86 208 7.0 14.0 0.00 0.00 0.00 1011.2
20260830214003 86 206 7.0 12.0 0.00 0.00 0.00 1011.5
20260830213503 86 206 6.0 12.0 0.00 0.00 0.00 1011.2
20260830213002 85 218 5.0 14.0 0.00 0.00 0.00 1011.2
20260830212502 84 234 8.0 15.0 0.00 0.00 0.00 1011.2
20260830212002 85 223 7.0 15.0 0.00 0.00 0.00 1011.5
20260830211503 84 226 9.0 12.0 0.00 0.00 0.00 1011.9
20260830211002 85 230 7.0 13.0 0.00 0.00 0.00 1011.2
20260830210501 84 239 7.0 13.0 0.00 0.00 0.00 1011.5
20260830210003 85 238 8.0 14.0 0.00 0.00 0.00 1011.5
20260830205503 85 226 8.0 14.0 0.00 0.00 0.00 1011.5
20260830205002 86 211 7.0 13.0 0.00 0.00 0.00 1011.5
20260830204523 85 223 6.0 14.0 0.00 0.00 0.00 1011.2
20260830204002 85 202 6.0 14.0 0.00 0.00 0.00 1011.5
20260830203502 85 205 7.0 14.0 0.00 0.00 0.00 1011.2
20260830203002 85 208 5.0 13.0 0.00 0.00 0.00 1011.9
20260830202502 86 207 7.0 13.0 0.00 0.00 0.00 1011.5
20260830202002 85 193 5.0 12.0 0.00 0.00 0.00 1011.5
20260830201501 85 189 4.0 12.0 0.00 0.00 0.00 1011.2
20260830201023 85 182 7.0 12.0 0.00 0.00 0.00 1011.2
20260830200502 85 212 6.0 12.0 0.00 0.00 0.00 1011.5
20260830200002 84 208 5.0 12.0 0.00 0.00 0.00 1011.9
20260830195502 84 236 7.0 12.0 0.00 0.00 0.00 1011.2
20260830195002 84 211 6.0 11.0 0.00 0.00 0.00 1011.5
20260830194503 84 213 7.0 11.0 0.00 0.00 0.00 1011.9
20260830194002 84 203 8.0 13.0 0.00 0.00 0.00 1011.9
20260830193502 84 226 7.0 13.0 0.00 0.00 0.00 1011.5
20260830193002 84 197 6.0 12.0 0.00 0.00 0.00 1011.2
20260830192503 84 223 5.0 10.0 0.00 0.00 0.00 1011.5
20260830192003 85 182 5.0 11.0 0.00 0.00 0.00 1011.9
20260830191503 84 210 6.0 12.0 0.00 0.00 0.00 1011.5
20260830191002 84 187 6.0 13.0 0.00 0.00 0.00 1011.9
20260830190524 84 186 5.0 13.0 0.00 0.00 0.00 1011.2
20260830190024 84 220 5.0 11.0 0.00 0.00 0.00 1011.5
20260830185502 84 212 6.0 11.0 0.00 0.00 0.00 1010.9
20260830185023 84 175 6.0 12.0 0.00 0.00 0.00 1011.9
20260830184503 84 181 6.0 12.0 0.00 0.00 0.00 1011.2
20260830184002 84 225 6.0 9.0 0.00 0.00 0.00 1011.5
20260830183502 84 204 4.0 10.0 0.00 0.00 0.00 1011.5
20260830183002 84 174 6.0 10.0 0.00 0.00 0.00 1011.2
20260830182502 84 178 5.0 12.0 0.00 0.00 0.00 1011.5
20260830182002 84 191 4.0 12.0 0.00 0.00 0.00 1011.9
20260830181502 84 162 4.0 10.0 0.00 0.00 0.00 1011.9
20260830181023 84 174 5.0 10.0 0.00 0.00 0.00 1011.9
20260830180502 84 182 4.0 10.0 0.00 0.00 0.00 1011.9
20260830180002 83 163 5.0 10.0 0.00 0.00 0.00 1011.5
20260830175501 82 177 5.0 9.0 0.00 0.00 0.00 1011.9
20260830175023 82 219 3.0 6.0 0.00 0.00 0.00 1011.9
20260830174524 82 89 2.0 7.0 0.00 0.00 0.00 1011.9
20260830174024 81 198 4.0 9.0 0.00 0.00 0.00 1011.5
20260830173503 81 201 4.0 10.0 0.00 0.00 0.00 1011.5
20260830173002 80 235 2.0 10.0 0.00 0.00 0.00 1011.5
20260830172502 80 71 2.0 7.0 0.00 0.00 0.00 1011.9
20260830172023 80 222 4.0 7.0 0.00 0.00 0.00 1012.2
20260830171502 80 214 3.0 6.0 0.00 0.00 0.00 1011.9
20260830171002 80 104 3.0 5.0 0.00 0.00 0.00 1011.5
20260830170524 80 98 3.0 7.0 0.00 0.00 0.00 1011.9